Location: Deer Path Park
(40.5570°N, 74.8450°W)
Time: 05:02:12
(UTC-04:00)

Iridium 49 - Visible Passes

Search period start: 01 November 2014 00:00
Search period end: 10 November 2014 23:00
Orbit: 776 x 779 km, 86.4° (Epoch: 31 October)

Date Brightness Start Highest point End Pass type
(mag) Time Alt. Az. Time Alt. Az. Time Alt. Az.
01 Nov 8.0 04:49:26 10° NNE 04:53:50 27° E 04:58:13 10° SE visible
01 Nov 6.6 06:29:56 10° NNW 06:34:33 33° W 06:39:09 10° SSW visible
01 Nov 8.9 19:28:16 10° WSW 19:31:26 16° WNW 19:34:38 10° NW visible
02 Nov 8.8 03:17:04 10° NE 03:20:00 15° ENE 03:22:55 10° ESE visible
02 Nov 6.0 04:56:01 10° N 05:01:10 62° W 05:06:17 10° SSW visible
02 Nov 8.2 17:53:08 10° SW 17:57:37 29° W 18:02:08 10° NNW visible
03 Nov 6.2 04:22:27 10° N 04:27:40 72° E 04:32:51 10° S visible
03 Nov 7.0 17:18:51 10° SSW 17:23:55 53° W 17:29:02 10° N visible
04 Nov 7.3 03:49:10 10° NNE 03:54:02 39° E 03:58:52 10° SSE visible
04 Nov 7.0 05:30:26 10° NNW 05:34:28 23° W 05:38:30 10° SW visible
04 Nov 9.2 18:30:25 10° W 18:31:45 11° WNW 18:33:06 10° WNW visible
05 Nov 8.3 03:16:19 10° NNE 03:20:16 22° ENE 03:24:12 10° SE visible
05 Nov 6.3 04:56:16 10° NNW 05:01:10 42° W 05:06:02 10° SSW visible
05 Nov 8.7 17:54:01 10° SW 17:57:50 20° WNW 18:01:41 10° NNW visible
06 Nov 9.0 02:44:37 10° NE 02:46:22 12° ENE 02:48:07 10° E visible
06 Nov 5.8 04:22:30 10° N 04:27:44 79° W 04:32:55 10° S visible
06 Nov 7.8 17:19:17 10° SSW 17:24:04 37° W 17:28:53 10° NNW visible
07 Nov 6.6 03:49:02 10° N 03:54:28 55° E 03:59:16 10° SSE visible
07 Nov 7.5 05:35:15 16° W 05:35:15 16° W 05:37:28 10° WSW visible
08 Nov 8.4 03:24:03 15° SE 03:24:03 15° SE 03:25:03 10° SE visible
08 Nov 7.9 05:04:41 14° SW 05:04:41 14° SW 05:05:33 10° SW visible
08 Nov 8.9 17:55:24 10° WSW 17:58:07 14° WNW 18:00:51 10° NW visible
09 Nov 8.4 17:19:58 10° SW 17:24:15 26° WNW 17:28:34 10° NNW visible
